TOM23 EGPH-EGKK

Flight info

Callsign TOM23
Flight time 1h 23m
Altitude 41000
Route GOSAM1C GOSAM P600 FENIK L612 NAVSO DCT ADZOP DCT EGTOC DCT KEPAD L151 DISIT DISIT1G
Aircraft A339/M-V/N

Departure

Time 2026-05-07 10:17
Airport Edinburgh Airport (EGPH)

Arrival

Time 2026-05-07 11:41
Airport London Gatwick Airport (EGKK)
Time Latitude Longitude Altitude Speed Heading
2026-05-07 09:45 55.95021 -3.36067 88 ft 0 kts 249°
2026-05-07 10:05 55.95029 -3.36032 110 ft 4 kts 248°
2026-05-07 10:05 55.95039 -3.35987 110 ft 4 kts 248°
2026-05-07 10:05 55.95049 -3.35942 110 ft 4 kts 248°
2026-05-07 10:05 55.95054 -3.35921 110 ft 4 kts 254°
2026-05-07 10:06 55.95059 -3.35880 110 ft 4 kts 289°
2026-05-07 10:06 55.95048 -3.35839 110 ft 4 kts 304°
2026-05-07 10:06 55.95041 -3.35820 109 ft 0 kts 298°
2026-05-07 10:12 55.95042 -3.35825 111 ft 2 kts 298°
2026-05-07 10:12 55.95058 -3.35876 112 ft 7 kts 299°
2026-05-07 10:12 55.95090 -3.35985 110 ft 13 kts 294°
2026-05-07 10:13 55.95127 -3.36150 113 ft 13 kts 306°
2026-05-07 10:13 55.95193 -3.36108 112 ft 13 kts 58°
2026-05-07 10:13 55.95254 -3.35923 111 ft 20 kts 59°
2026-05-07 10:13 55.95336 -3.35681 111 ft 25 kts 59°
2026-05-07 10:14 55.95418 -3.35443 111 ft 7 kts 53°
2026-05-07 10:14 55.95482 -3.35429 114 ft 13 kts 339°
2026-05-07 10:14 55.95495 -3.35439 112 ft 0 kts 336°
2026-05-07 10:16 55.95512 -3.35454 112 ft 8 kts 334°
2026-05-07 10:16 55.95558 -3.35564 111 ft 15 kts 274°
2026-05-07 10:17 55.95488 -3.35804 111 ft 43 kts 238°
2026-05-07 10:17 55.95194 -3.36667 116 ft 117 kts 239°
2026-05-07 10:17 55.94676 -3.38203 285 ft 159 kts 238°
2026-05-07 10:17 55.94101 -3.39952 925 ft 168 kts 237°
2026-05-07 10:18 55.93507 -3.41786 1648 ft 174 kts 237°
2026-05-07 10:18 55.92890 -3.43641 2391 ft 174 kts 236°
2026-05-07 10:18 55.92284 -3.45568 3006 ft 183 kts 242°
2026-05-07 10:18 55.91803 -3.47748 3699 ft 194 kts 249°
2026-05-07 10:19 55.91387 -3.50096 4436 ft 204 kts 250°
2026-05-07 10:19 55.90972 -3.52542 5224 ft 213 kts 252°
2026-05-07 10:19 55.90577 -3.55172 5781 ft 232 kts 254°
2026-05-07 10:19 55.90173 -3.58106 5997 ft 253 kts 253°
2026-05-07 10:20 55.89694 -3.61159 5995 ft 257 kts 252°
2026-05-07 10:20 55.89237 -3.64233 5989 ft 256 kts 254°
2026-05-07 10:20 55.88839 -3.67351 5988 ft 256 kts 256°
2026-05-07 10:20 55.88491 -3.70469 5988 ft 258 kts 257°
2026-05-07 10:21 55.88163 -3.73645 6091 ft 262 kts 258°
2026-05-07 10:21 55.87844 -3.76832 6833 ft 260 kts 258°
2026-05-07 10:21 55.87526 -3.80013 7631 ft 262 kts 258°
2026-05-07 10:21 55.86978 -3.83067 8355 ft 263 kts 239°
2026-05-07 10:22 55.85746 -3.85448 9131 ft 266 kts 215°
2026-05-07 10:22 55.84044 -3.86839 9914 ft 271 kts 200°
2026-05-07 10:22 55.82201 -3.87822 10368 ft 286 kts 197°
2026-05-07 10:22 55.80212 -3.88830 10572 ft 307 kts 198°
2026-05-07 10:23 55.78111 -3.89983 10904 ft 321 kts 199°
2026-05-07 10:23 55.75980 -3.91240 11576 ft 325 kts 200°
2026-05-07 10:23 55.73860 -3.92540 12219 ft 328 kts 200°
2026-05-07 10:23 55.71616 -3.93433 12842 ft 335 kts 185°
2026-05-07 10:24 55.69282 -3.92942 13501 ft 342 kts 170°
2026-05-07 10:24 55.66954 -3.91919 14095 ft 347 kts 167°
2026-05-07 10:24 55.64609 -3.90803 14659 ft 350 kts 167°
2026-05-07 10:24 55.62240 -3.89697 15219 ft 354 kts 168°
2026-05-07 10:25 55.59835 -3.88615 15800 ft 357 kts 168°
2026-05-07 10:25 55.57435 -3.87567 16351 ft 361 kts 169°
2026-05-07 10:25 55.54980 -3.86513 16910 ft 364 kts 169°
2026-05-07 10:25 55.52500 -3.85455 17481 ft 368 kts 169°
2026-05-07 10:26 55.49995 -3.84388 18042 ft 372 kts 169°
2026-05-07 10:26 55.47472 -3.83314 18573 ft 375 kts 169°
2026-05-07 10:26 55.44923 -3.82230 19091 ft 378 kts 169°
2026-05-07 10:26 55.42351 -3.81137 19603 ft 381 kts 169°
2026-05-07 10:27 55.39765 -3.80040 20144 ft 383 kts 169°
2026-05-07 10:27 55.37191 -3.78948 20666 ft 386 kts 169°
2026-05-07 10:27 55.34562 -3.77836 21187 ft 389 kts 169°
2026-05-07 10:27 55.31954 -3.76733 21720 ft 392 kts 169°
2026-05-07 10:28 55.29277 -3.75603 22238 ft 395 kts 169°
2026-05-07 10:28 55.26617 -3.74480 22786 ft 398 kts 169°
2026-05-07 10:28 55.23913 -3.73340 23325 ft 401 kts 169°
2026-05-07 10:28 55.21182 -3.72190 23814 ft 405 kts 169°
2026-05-07 10:29 55.18417 -3.71028 24265 ft 407 kts 169°
2026-05-07 10:29 55.15669 -3.69877 24721 ft 410 kts 169°
2026-05-07 10:29 55.12868 -3.68703 25166 ft 413 kts 169°
2026-05-07 10:30 55.07262 -3.66355 26035 ft 419 kts 169°
2026-05-07 10:30 55.04415 -3.65166 26464 ft 422 kts 169°
2026-05-07 10:30 55.01540 -3.63969 26875 ft 425 kts 169°
2026-05-07 10:30 54.98649 -3.62765 27316 ft 428 kts 169°
2026-05-07 10:31 54.95736 -3.61554 27715 ft 431 kts 168°
2026-05-07 10:31 54.92808 -3.60339 28112 ft 434 kts 169°
2026-05-07 10:31 54.89863 -3.59118 28488 ft 437 kts 169°
2026-05-07 10:31 54.86893 -3.57889 28892 ft 439 kts 169°
2026-05-07 10:32 54.84924 -3.57075 29148 ft 441 kts 169°
2026-05-07 10:32 54.82637 -3.56131 29438 ft 443 kts 168°
2026-05-07 10:32 54.79628 -3.54889 29809 ft 446 kts 169°
2026-05-07 10:32 54.76594 -3.53640 30185 ft 449 kts 169°
2026-05-07 10:33 54.73576 -3.52398 30551 ft 451 kts 168°
2026-05-07 10:33 54.70519 -3.51143 30909 ft 453 kts 169°
2026-05-07 10:33 54.67442 -3.49881 31278 ft 455 kts 169°
2026-05-07 10:33 54.64351 -3.48616 31635 ft 457 kts 169°
2026-05-07 10:34 54.61239 -3.47344 31983 ft 460 kts 168°
2026-05-07 10:34 54.58117 -3.46071 32340 ft 462 kts 168°
2026-05-07 10:34 54.54982 -3.44793 32629 ft 464 kts 168°
2026-05-07 10:34 54.51828 -3.43510 32902 ft 466 kts 168°
2026-05-07 10:35 54.48655 -3.42221 33149 ft 467 kts 168°
2026-05-07 10:35 54.45484 -3.40935 33354 ft 469 kts 168°
2026-05-07 10:35 54.42300 -3.39646 33540 ft 470 kts 168°
2026-05-07 10:35 54.39109 -3.38356 33790 ft 470 kts 168°
2026-05-07 10:36 54.35964 -3.37086 34041 ft 470 kts 168°
2026-05-07 10:36 54.32780 -3.35803 34252 ft 469 kts 168°
2026-05-07 10:36 54.29597 -3.34522 34453 ft 470 kts 168°
2026-05-07 10:36 54.26414 -3.33244 34656 ft 470 kts 168°
2026-05-07 10:37 54.23226 -3.31965 34860 ft 469 kts 168°
2026-05-07 10:37 54.20040 -3.30690 35049 ft 470 kts 168°
2026-05-07 10:37 54.16895 -3.29432 35230 ft 470 kts 169°
2026-05-07 10:37 54.13701 -3.28157 35430 ft 470 kts 169°
2026-05-07 10:38 54.10516 -3.26888 35632 ft 470 kts 169°
2026-05-07 10:38 54.07407 -3.25652 35822 ft 470 kts 169°
2026-05-07 10:38 54.04224 -3.24387 36002 ft 470 kts 169°
2026-05-07 10:38 54.01032 -3.23109 36207 ft 470 kts 168°
2026-05-07 10:39 53.97905 -3.21438 36382 ft 472 kts 161°
2026-05-07 10:39 53.94870 -3.19455 36555 ft 472 kts 161°
2026-05-07 10:39 53.91801 -3.17444 36747 ft 472 kts 161°
2026-05-07 10:39 53.88718 -3.15438 36927 ft 472 kts 161°
2026-05-07 10:40 53.85644 -3.13451 37114 ft 472 kts 161°
2026-05-07 10:40 53.82564 -3.11469 37314 ft 472 kts 161°
2026-05-07 10:40 53.79496 -3.09500 37483 ft 472 kts 161°
2026-05-07 10:40 53.76442 -3.07544 37666 ft 472 kts 161°
2026-05-07 10:41 53.73367 -3.05579 37844 ft 472 kts 161°
2026-05-07 10:41 53.70282 -3.03609 38037 ft 472 kts 161°
2026-05-07 10:41 53.67242 -3.01672 38200 ft 472 kts 161°
2026-05-07 10:41 53.64154 -2.99706 38379 ft 472 kts 161°
2026-05-07 10:42 53.61065 -2.97744 38546 ft 473 kts 161°
2026-05-07 10:42 53.58017 -2.95810 38721 ft 472 kts 161°
2026-05-07 10:42 53.54944 -2.93862 38861 ft 473 kts 161°
2026-05-07 10:42 53.51862 -2.91913 38988 ft 473 kts 161°
2026-05-07 10:43 53.48780 -2.89968 39120 ft 473 kts 161°
2026-05-07 10:43 53.45693 -2.88021 39272 ft 473 kts 161°
2026-05-07 10:43 53.42609 -2.86079 39406 ft 473 kts 161°
2026-05-07 10:43 53.39524 -2.84139 39530 ft 473 kts 161°
2026-05-07 10:44 53.36476 -2.82226 39655 ft 473 kts 161°
2026-05-07 10:44 53.33388 -2.80290 39775 ft 474 kts 161°
2026-05-07 10:44 53.30292 -2.78352 39891 ft 474 kts 161°
2026-05-07 10:44 53.27201 -2.76422 40011 ft 474 kts 161°
2026-05-07 10:45 53.24107 -2.74491 40146 ft 474 kts 161°
2026-05-07 10:45 53.21011 -2.72563 40251 ft 474 kts 161°
2026-05-07 10:45 53.17905 -2.70632 40368 ft 475 kts 161°
2026-05-07 10:45 53.14804 -2.68706 40477 ft 475 kts 161°
2026-05-07 10:46 53.11744 -2.66810 40590 ft 475 kts 161°
2026-05-07 10:46 53.08648 -2.64893 40708 ft 475 kts 161°
2026-05-07 10:46 53.05543 -2.62974 40821 ft 475 kts 161°
2026-05-07 10:46 53.02433 -2.61055 40943 ft 475 kts 161°
2026-05-07 10:47 52.99324 -2.59139 41045 ft 475 kts 161°
2026-05-07 10:47 52.96227 -2.57234 41062 ft 475 kts 161°
2026-05-07 10:47 52.90032 -2.53432 41069 ft 474 kts 161°
2026-05-07 10:48 52.83851 -2.49591 41071 ft 475 kts 159°
2026-05-07 10:48 52.77984 -2.44668 41069 ft 477 kts 150°
2026-05-07 10:49 52.73353 -2.39569 41044 ft 478 kts 147°
2026-05-07 10:49 52.67219 -2.32726 41050 ft 477 kts 148°
2026-05-07 10:50 52.61686 -2.26641 41048 ft 477 kts 148°
2026-05-07 10:50 52.57077 -2.21599 40921 ft 475 kts 148°
2026-05-07 10:51 52.54328 -2.18597 40444 ft 475 kts 148°
2026-05-07 10:51 52.51563 -2.15584 39726 ft 477 kts 148°
2026-05-07 10:51 52.48779 -2.12555 38839 ft 481 kts 148°
2026-05-07 10:51 52.45982 -2.09515 37631 ft 484 kts 148°
2026-05-07 10:52 52.43168 -2.06460 36510 ft 484 kts 148°
2026-05-07 10:52 52.40360 -2.03416 35414 ft 483 kts 148°
2026-05-07 10:52 52.37587 -2.00413 34286 ft 483 kts 148°
2026-05-07 10:52 52.34781 -1.97380 32940 ft 483 kts 148°
2026-05-07 10:53 52.31964 -1.94342 31472 ft 485 kts 148°
2026-05-07 10:53 52.29101 -1.91262 29929 ft 488 kts 148°
2026-05-07 10:53 52.26305 -1.88257 28670 ft 484 kts 148°
2026-05-07 10:53 52.23510 -1.85255 27720 ft 478 kts 148°
2026-05-07 10:54 52.20748 -1.82292 26940 ft 472 kts 148°
2026-05-07 10:54 52.18011 -1.79361 26146 ft 466 kts 148°
2026-05-07 10:54 52.15312 -1.76476 25336 ft 461 kts 148°
2026-05-07 10:54 52.12634 -1.73618 24584 ft 456 kts 148°
2026-05-07 10:55 52.10018 -1.70829 23843 ft 451 kts 148°
2026-05-07 10:55 52.07408 -1.68053 23011 ft 447 kts 148°
2026-05-07 10:55 52.04815 -1.65300 22154 ft 442 kts 148°
2026-05-07 10:55 52.02435 -1.62776 21369 ft 437 kts 148°
2026-05-07 10:56 51.99897 -1.60088 20553 ft 433 kts 148°
2026-05-07 10:56 51.97382 -1.57428 19726 ft 429 kts 148°
2026-05-07 10:56 51.94919 -1.54826 18919 ft 424 kts 148°
2026-05-07 10:56 51.92450 -1.52221 18074 ft 420 kts 148°
2026-05-07 10:57 51.90002 -1.49640 17196 ft 415 kts 148°
2026-05-07 10:57 51.87628 -1.47140 16453 ft 408 kts 148°
2026-05-07 10:57 51.85290 -1.44680 16118 ft 390 kts 148°
2026-05-07 10:57 51.83061 -1.42336 15909 ft 378 kts 148°
2026-05-07 10:58 51.80830 -1.39999 15575 ft 385 kts 148°
2026-05-07 10:58 51.78587 -1.37654 15250 ft 383 kts 148°
2026-05-07 10:58 51.76359 -1.35324 15100 ft 380 kts 148°
2026-05-07 10:58 51.74150 -1.33019 14988 ft 382 kts 148°
2026-05-07 10:59 51.71914 -1.30686 14897 ft 380 kts 148°
2026-05-07 10:59 51.69697 -1.28373 14796 ft 380 kts 148°
2026-05-07 10:59 51.67474 -1.26057 14699 ft 380 kts 148°
2026-05-07 10:59 51.65279 -1.23773 14603 ft 380 kts 148°
2026-05-07 11:00 51.63060 -1.21468 14511 ft 379 kts 148°
2026-05-07 11:00 51.60842 -1.19169 14407 ft 378 kts 148°
2026-05-07 11:00 51.58634 -1.16882 14294 ft 378 kts 148°
2026-05-07 11:00 51.56421 -1.14591 14202 ft 379 kts 148°
2026-05-07 11:01 51.54206 -1.12301 14113 ft 377 kts 148°
2026-05-07 11:01 51.52031 -1.10053 14017 ft 376 kts 148°
2026-05-07 11:01 51.49831 -1.07784 13923 ft 376 kts 148°
2026-05-07 11:01 51.47614 -1.05506 13826 ft 377 kts 148°
2026-05-07 11:02 51.45412 -1.03239 13725 ft 375 kts 148°
2026-05-07 11:02 51.43204 -1.00968 13594 ft 375 kts 148°
2026-05-07 11:02 51.41016 -0.98722 12946 ft 371 kts 148°
2026-05-07 11:02 51.38827 -0.96479 11647 ft 377 kts 148°
2026-05-07 11:03 51.36615 -0.94215 10552 ft 374 kts 147°
2026-05-07 11:03 51.34642 -0.92197 10090 ft 354 kts 147°
2026-05-07 11:03 51.32641 -0.90147 9826 ft 328 kts 147°
2026-05-07 11:03 51.30785 -0.88248 9496 ft 305 kts 147°
2026-05-07 11:04 51.29025 -0.86448 8912 ft 294 kts 147°
2026-05-07 11:04 51.27323 -0.84719 8704 ft 293 kts 147°
2026-05-07 11:04 51.25584 -0.82952 8623 ft 296 kts 147°
2026-05-07 11:04 51.23848 -0.81189 8524 ft 295 kts 147°
2026-05-07 11:05 51.22116 -0.79427 8452 ft 294 kts 147°
2026-05-07 11:05 51.20432 -0.77717 8367 ft 293 kts 147°
2026-05-07 11:05 51.18708 -0.75967 8304 ft 294 kts 147°
2026-05-07 11:05 51.16980 -0.74215 8212 ft 294 kts 147°
2026-05-07 11:06 51.15256 -0.72471 8129 ft 293 kts 147°
2026-05-07 11:06 51.13552 -0.70745 8051 ft 294 kts 147°
2026-05-07 11:06 51.11825 -0.68994 7969 ft 294 kts 147°
2026-05-07 11:06 51.10101 -0.67250 7880 ft 293 kts 147°
2026-05-07 11:07 51.08377 -0.65514 7791 ft 293 kts 147°
2026-05-07 11:07 51.06702 -0.63815 7715 ft 291 kts 146°
2026-05-07 11:07 51.05754 -0.62607 7667 ft 290 kts 135°
2026-05-07 11:07 51.04548 -0.60054 7597 ft 289 kts 116°
2026-05-07 11:08 51.03688 -0.57195 7527 ft 290 kts 113°
2026-05-07 11:08 51.02825 -0.54313 7443 ft 289 kts 114°
2026-05-07 11:08 51.01943 -0.51436 7370 ft 288 kts 114°
2026-05-07 11:08 51.01056 -0.48583 7287 ft 288 kts 115°
2026-05-07 11:09 51.00168 -0.45736 7227 ft 288 kts 115°
2026-05-07 11:09 50.99269 -0.42894 7142 ft 288 kts 115°
2026-05-07 11:09 50.98370 -0.40062 7065 ft 287 kts 115°
2026-05-07 11:09 50.97474 -0.37236 6986 ft 287 kts 115°
2026-05-07 11:10 50.96577 -0.34402 6918 ft 287 kts 115°
2026-05-07 11:10 50.95685 -0.31576 6846 ft 287 kts 115°
2026-05-07 11:10 50.94792 -0.28751 6657 ft 286 kts 115°
2026-05-07 11:10 50.93899 -0.25941 6478 ft 284 kts 115°
2026-05-07 11:11 50.93007 -0.23126 6319 ft 285 kts 115°
2026-05-07 11:11 50.92118 -0.20320 6186 ft 284 kts 115°
2026-05-07 11:11 50.91240 -0.17561 6024 ft 281 kts 115°
2026-05-07 11:11 50.90374 -0.14854 5928 ft 268 kts 115°
2026-05-07 11:12 50.89551 -0.12295 5778 ft 252 kts 114°
2026-05-07 11:12 50.88767 -0.09851 5415 ft 247 kts 114°
2026-05-07 11:12 50.88098 -0.07393 5120 ft 242 kts 99°
2026-05-07 11:12 50.88122 -0.04780 5051 ft 232 kts 71°
2026-05-07 11:13 50.88876 -0.02624 4785 ft 220 kts 41°
2026-05-07 11:13 50.90190 -0.01452 4725 ft 219 kts 11°
2026-05-07 11:13 50.91677 -0.01549 4670 ft 215 kts 342°
2026-05-07 11:13 50.93040 -0.02544 4593 ft 217 kts 332°
2026-05-07 11:14 50.94333 -0.03770 4552 ft 217 kts 327°
2026-05-07 11:14 50.95483 -0.05320 4492 ft 219 kts 314°
2026-05-07 11:14 50.96344 -0.07285 4434 ft 222 kts 300°
2026-05-07 11:14 50.96955 -0.09586 4375 ft 225 kts 291°
2026-05-07 11:15 50.97393 -0.11941 4316 ft 226 kts 287°
2026-05-07 11:15 50.97760 -0.14368 4208 ft 227 kts 285°
2026-05-07 11:15 50.98110 -0.16822 4090 ft 225 kts 285°
2026-05-07 11:15 50.98471 -0.19239 4001 ft 225 kts 287°
2026-05-07 11:16 50.98844 -0.21652 3891 ft 224 kts 286°
2026-05-07 11:16 50.99219 -0.24059 3628 ft 223 kts 286°
2026-05-07 11:16 50.99593 -0.26434 3468 ft 227 kts 287°
2026-05-07 11:16 50.99977 -0.28853 3319 ft 224 kts 287°
2026-05-07 11:17 51.00362 -0.31276 3131 ft 227 kts 287°
2026-05-07 11:17 51.00743 -0.33693 2998 ft 222 kts 286°
2026-05-07 11:17 51.01119 -0.36080 3001 ft 225 kts 287°
2026-05-07 11:17 51.01531 -0.38449 2998 ft 226 kts 288°
2026-05-07 11:18 51.01947 -0.40853 2991 ft 224 kts 288°
2026-05-07 11:18 51.02347 -0.43264 2997 ft 226 kts 287°
2026-05-07 11:18 51.02742 -0.45689 2989 ft 226 kts 286°
2026-05-07 11:18 51.03115 -0.48107 2993 ft 227 kts 286°
2026-05-07 11:19 51.03496 -0.50546 2997 ft 227 kts 287°
2026-05-07 11:19 51.04220 -0.52691 2993 ft 220 kts 315°
2026-05-07 11:19 51.05510 -0.53930 2999 ft 218 kts 346°
2026-05-07 11:19 51.07003 -0.53902 2996 ft 217 kts 16°
2026-05-07 11:20 51.08367 -0.52874 2994 ft 218 kts 31°
2026-05-07 11:20 51.09522 -0.51305 2996 ft 220 kts 48°
2026-05-07 11:20 51.10349 -0.49262 2997 ft 220 kts 62°
2026-05-07 11:20 51.10874 -0.47070 2992 ft 205 kts 71°
2026-05-07 11:21 51.11215 -0.44948 2999 ft 203 kts 75°
2026-05-07 11:21 51.11533 -0.42742 2990 ft 201 kts 75°
2026-05-07 11:21 51.11822 -0.40651 2990 ft 185 kts 75°
2026-05-07 11:21 51.12096 -0.38686 3007 ft 185 kts 75°
2026-05-07 11:22 51.12368 -0.36685 3000 ft 185 kts 75°
2026-05-07 11:22 51.12646 -0.34731 2981 ft 172 kts 74°
2026-05-07 11:22 51.12885 -0.32995 2988 ft 153 kts 74°
2026-05-07 11:22 51.13120 -0.31306 3000 ft 150 kts 73°
2026-05-07 11:23 51.13326 -0.29769 3000 ft 142 kts 76°
2026-05-07 11:23 51.13547 -0.28259 2993 ft 139 kts 72°
2026-05-07 11:23 51.13744 -0.26717 2987 ft 141 kts 72°
2026-05-07 11:23 51.13974 -0.25069 3015 ft 174 kts 77°
2026-05-07 11:24 51.14311 -0.22944 3088 ft 218 kts 75°
2026-05-07 11:24 51.14657 -0.20520 3704 ft 227 kts 72°
2026-05-07 11:24 51.15098 -0.18093 3936 ft 229 kts 71°
2026-05-07 11:24 51.15497 -0.15626 4000 ft 230 kts 75°
2026-05-07 11:25 51.15663 -0.13096 4008 ft 234 kts 93°
2026-05-07 11:25 51.15100 -0.10666 4001 ft 238 kts 123°
2026-05-07 11:25 51.13852 -0.08950 3999 ft 240 kts 154°
2026-05-07 11:25 51.12221 -0.08411 4006 ft 241 kts 182°
2026-05-07 11:26 51.10557 -0.08282 4002 ft 240 kts 166°
2026-05-07 11:26 51.09057 -0.07112 4009 ft 241 kts 146°
2026-05-07 11:26 51.07677 -0.05664 4002 ft 241 kts 146°
2026-05-07 11:26 51.06280 -0.04203 3999 ft 240 kts 146°
2026-05-07 11:27 51.04873 -0.02745 3997 ft 241 kts 146°
2026-05-07 11:27 51.03342 -0.01690 4011 ft 241 kts 167°
2026-05-07 11:27 51.01707 -0.01093 3992 ft 240 kts 167°
2026-05-07 11:27 51.00086 -0.00499 3990 ft 241 kts 167°
2026-05-07 11:28 50.98983 -0.00101 3994 ft 241 kts 167°
2026-05-07 11:28 50.97017 0.00514 3986 ft 241 kts 177°
2026-05-07 11:28 50.95395 0.00006 3996 ft 239 kts 206°
2026-05-07 11:28 50.93915 -0.01200 3995 ft 238 kts 209°
2026-05-07 11:29 50.92586 -0.02719 3994 ft 235 kts 231°
2026-05-07 11:29 50.91876 -0.05010 3995 ft 232 kts 262°
2026-05-07 11:29 50.91856 -0.07538 3995 ft 228 kts 275°
2026-05-07 11:29 50.91952 -0.10051 3989 ft 227 kts 281°
2026-05-07 11:30 50.92566 -0.12267 4002 ft 224 kts 307°
2026-05-07 11:30 50.93469 -0.14300 3993 ft 224 kts 307°
2026-05-07 11:30 50.94362 -0.16320 4003 ft 224 kts 307°
2026-05-07 11:30 50.95264 -0.18351 3996 ft 223 kts 307°
2026-05-07 11:31 50.96153 -0.20365 3995 ft 224 kts 307°
2026-05-07 11:31 50.97051 -0.22388 3994 ft 224 kts 307°
2026-05-07 11:31 50.97962 -0.24397 3991 ft 225 kts 309°
2026-05-07 11:31 50.98893 -0.26332 3996 ft 223 kts 307°
2026-05-07 11:32 51.00268 -0.30712 3987 ft 213 kts 291°
2026-05-07 11:32 51.00686 -0.32898 3995 ft 207 kts 287°
2026-05-07 11:32 51.01038 -0.35133 3992 ft 206 kts 286°
2026-05-07 11:33 51.01394 -0.37333 3998 ft 207 kts 287°
2026-05-07 11:33 51.01768 -0.39526 3995 ft 201 kts 287°
2026-05-07 11:33 51.02114 -0.41608 3988 ft 191 kts 287°
2026-05-07 11:33 51.02458 -0.43714 3991 ft 198 kts 287°
2026-05-07 11:34 51.02791 -0.45814 3993 ft 195 kts 286°
2026-05-07 11:34 51.03115 -0.47916 3994 ft 196 kts 285°
2026-05-07 11:34 51.03327 -0.49312 3993 ft 195 kts 285°
2026-05-07 11:34 51.03732 -0.51359 3980 ft 192 kts 301°
2026-05-07 11:35 51.04671 -0.52802 4000 ft 192 kts 333°
2026-05-07 11:35 51.05969 -0.53159 4009 ft 191 kts
2026-05-07 11:35 51.07219 -0.52429 3986 ft 193 kts 27°
2026-05-07 11:35 51.08334 -0.51364 3994 ft 182 kts 31°
2026-05-07 11:36 51.09383 -0.50176 3998 ft 185 kts 39°
2026-05-07 11:36 51.10228 -0.48640 3993 ft 187 kts 55°
2026-05-07 11:36 51.10824 -0.46782 3994 ft 189 kts 67°
2026-05-07 11:36 51.11216 -0.44800 3992 ft 187 kts 73°
2026-05-07 11:37 51.11523 -0.42781 3995 ft 191 kts 75°
2026-05-07 11:37 51.11807 -0.40743 3979 ft 185 kts 76°
2026-05-07 11:37 51.12086 -0.38743 3686 ft 185 kts 76°
2026-05-07 11:37 51.12354 -0.36772 3455 ft 176 kts 76°
2026-05-07 11:38 51.12612 -0.34979 3326 ft 157 kts 75°
2026-05-07 11:38 51.12842 -0.33315 3046 ft 150 kts 75°
2026-05-07 11:38 51.13059 -0.31728 2906 ft 149 kts 75°
2026-05-07 11:38 51.13279 -0.30052 2378 ft 158 kts 77°
2026-05-07 11:39 51.13524 -0.28310 1834 ft 163 kts 76°
2026-05-07 11:39 51.13773 -0.26550 1354 ft 162 kts 75°
2026-05-07 11:39 51.14023 -0.24812 836 ft 161 kts 76°
2026-05-07 11:39 51.14244 -0.23159 601 ft 145 kts 78°
2026-05-07 11:40 51.14454 -0.21635 367 ft 138 kts 78°
2026-05-07 11:40 51.14663 -0.20153 242 ft 136 kts 78°
2026-05-07 11:40 51.14851 -0.18692 215 ft 129 kts 74°
2026-05-07 11:40 51.15003 -0.17659 219 ft 51 kts 77°
2026-05-07 11:41 51.15113 -0.17239 222 ft 12 kts 39°
2026-05-07 11:41 51.15204 -0.17271 217 ft 12 kts 326°
2026-05-07 11:41 51.15207 -0.17274 217 ft 0 kts 326°
2026-05-07 11:42 51.15208 -0.17275 217 ft 1 kts 326°
2026-05-07 11:42 51.15212 -0.17279 217 ft 0 kts 326°
2026-05-07 11:43 51.15215 -0.17283 217 ft 3 kts 326°
2026-05-07 11:43 51.15257 -0.17329 217 ft 11 kts 325°
2026-05-07 11:43 51.15350 -0.17373 217 ft 17 kts 346°
2026-05-07 11:44 51.15488 -0.17423 216 ft 23 kts 347°
2026-05-07 11:44 51.15618 -0.17468 215 ft 14 kts 347°
2026-05-07 11:44 51.15719 -0.17501 218 ft 15 kts 354°
2026-05-07 11:44 51.15769 -0.17435 214 ft 0 kts 69°
2026-05-07 11:45 51.15774 -0.17420 220 ft 4 kts 60°
2026-05-07 11:45 51.15808 -0.17404 219 ft 7 kts
2026-05-07 11:45 51.15851 -0.17414 215 ft 2 kts 349°
2026-05-07 11:46 51.15867 -0.17419 211 ft 2 kts 348°
2026-05-07 11:46 51.15872 -0.17421 211 ft 0 kts 348°
2026-05-07 11:46 51.15857 -0.17416 213 ft 3 kts 348°
2026-05-07 11:47 51.15858 -0.17416 213 ft 0 kts 348°